[[{"header":{"parameterUnit":"m.s-1","parameterCategory":2,"la1":30.2992,"la2":30.254,"lo1":-89.0895,"lo2":-89.0443,"dy":0.0025,"dx":0.0025,"nx":19,"ny":19,"refTime":"2026-04-24T09:00:00:Z","depth":"0","parameterNumber":2,"parameterNumberName":"U-component_of_CURRENTS"},"data":[0,0,0,-0.1505,-0.1505,-0.151,-0.151,-0.1511,-0.1511,0,0,0,0,0,0,0,0,0,0,0,-0.1495,-0.1495,-0.1505,-0.1505,-0.151,-0.151,-0.1511,-0.1511,0,0,0,0,0,0,0,0,0,0,0,-0.1496,-0.1495,-0.1495,-0.1505,-0.151,-0.151,-0.1511,-0.151,0,0,0,0,0,0,0,0,0,0,-0.1507,-0.1489,-0.1495,-0.1495,-0.1505,-0.151,-0.151,-0.151,-0.151,-0.1506,0,-0.1495,0,-0.1504,-0.151,-0.151,0,0,0,-0.1511,-0.1489,-0.1497,-0.1495,-0.1505,-0.151,-0.1509,-0.151,-0.151,-0.1506,-0.1496,-0.1496,-0.1504,-0.151,-0.151,-0.1447,-0.1447,0,0,-0.151,-0.1492,-0.1497,-0.1497,-0.1492,-0.1509,-0.1509,-0.151,-0.1499,-0.1496,-0.1496,-0.1504,-0.151,-0.151,-0.1448,-0.1447,0,0,0,-0.1506,-0.1492,-0.1501,-0.1497,-0.1498,-0.1509,-0.1509,-0.1499,-0.1504,-0.1496,-0.1504,-0.151,-0.151,-0.1448,-0.1447,-0.1447,0,0,0,-0.1506,-0.1489,-0.15,-0.1489,-0.1498,-0.1498,-0.1498,-0.1504,-0.1504,-0.1504,-0.151,-0.151,-0.1449,-0.1448,-0.1449,-0.1433,0,0,0,-0.1498,-0.1489,-0.1486,-0.1488,-0.149,-0.1498,-0.1503,-0.1504,-0.1508,-0.151,-0.151,-0.145,-0.1448,-0.145,-0.1436,-0.1366,0,0,0,-0.1485,-0.1459,-0.1485,-0.1462,-0.1489,-0.1478,-0.1503,-0.1491,-0.1488,-0.151,-0.1449,-0.1448,-0.1451,-0.1437,-0.1368,-0.1071,-0.1036,0,0,-0.1447,-0.1454,-0.1444,-0.1468,-0.1454,-0.1479,-0.1458,-0.1465,-0.1463,-0.1451,-0.145,-0.1449,-0.1436,-0.1366,-0.0985,-0.0952,0,0,0,-0.1429,-0.1422,-0.142,-0.1421,-0.1426,-0.1431,-0.1439,-0.1439,-0.1426,-0.1454,-0.1418,-0.1408,-0.1365,-0.119,-0.1164,-0.1086,-0.1441,-0.1441,-0.1441,-0.1352,-0.1377,-0.1372,-0.1397,-0.1388,-0.1392,-0.1384,-0.1379,-0.1397,-0.138,-0.1387,-0.1303,-0.1115,-0.1093,-0.1017,-0.137,-0.137,-0.137,-0.137,-0.1329,-0.1344,-0.1363,-0.1377,-0.1384,-0.1376,-0.1353,-0.1354,-0.1309,-0.1348,-0.1306,-0.1171,-0.1063,-0.0993,-0.1369,-0.1369,-0.1369,-0.1369,-0.1369,-0.1325,-0.1337,-0.1361,-0.136,-0.1354,-0.1351,-0.1233,-0.1279,-0.1292,-0.1258,-0.1027,-0.1023,-0.0977,-0.123,-0.123,-0.123,-0.1229,-0.1229,-0.1229,-0.132,-0.1341,-0.1282,-0.1321,-0.1243,-0.1192,-0.1153,-0.1071,-0.0989,-0.0971,-0.0968,-0.0897,-0.1259,-0.1283,-0.1223,-0.1224,-0.1225,-0.1225,-0.1226,-0.119,-0.1225,-0.113,-0.1044,-0.0906,-0.0749,-0.0743,-0.055,-0.053,-0.0429,-0.0494,-0.0793,-0.0751,-0.0767,-0.0776,-0.059,-0.059,-0.059,-0.059,-0.1025,-0.1079,-0.0867,-0.0703,-0.0536,-0.05,-0.0106,-0.0014,-0.0044,-0.0043,-0.0197,-0.0167,-0.0197,-0.0126,-0.0157,-0.0156,0.0183,0.0184,0.0184,-0.0756,-0.0807,-0.0568,-0.0579,-0.0366,-0.0199,0.0121,0.0307,0.0305,0.0206,-0.0153,-0.0185,-0.0166,-0.0218,-0.0131,-0.0181,-0.019,0,0]},{"header":{"parameterUnit":"m.s-1","parameterCategory":2,"la1":30.2992,"la2":30.254,"lo1":-89.0895,"lo2":-89.0443,"dy":0.0025,"dx":0.0025,"nx":19,"ny":19,"refTime":"2026-04-24T09:00:00:Z","depth":"0","parameterNumber":3,"parameterNumberName":"V-component_of_CURRENTS"},"data":[0,0,0,-0.0236,-0.0235,-0.0157,-0.0157,-0.0019,-0.0017,0,0,0,0,0,0,0,0,0,0,0,-0.0261,-0.026,-0.0236,-0.0235,-0.0157,-0.0157,-0.0019,-0.0017,0,0,0,0,0,0,0,0,0,0,0,-0.0261,-0.026,-0.026,-0.0235,-0.0157,-0.0157,-0.0019,-0.0084,0,0,0,0,0,0,0,0,0,0,-0.0163,-0.0199,-0.026,-0.026,-0.0234,-0.0157,-0.0157,-0.0088,-0.008,-0.0047,0,-0.0041,0,-0.0032,-0.0008,-0.0008,0,0,0,-0.0222,-0.0206,-0.0184,-0.026,-0.0234,-0.0158,-0.0189,-0.0084,-0.0075,-0.0037,-0.0039,-0.0035,-0.0029,-0.0008,-0.0007,0.0075,0.0075,0,0,-0.0226,-0.0243,-0.019,-0.0179,-0.0221,-0.0191,-0.0186,-0.0079,-0.0072,-0.0039,-0.0031,-0.0027,-0.0007,-0.0006,0.0075,0.0075,0,0,0,-0.0247,-0.0246,-0.0227,-0.0184,-0.0176,-0.0189,-0.0184,-0.0077,-0.0071,-0.003,-0.0025,-0.0006,-0.0004,0.0075,0.0075,0.0031,0,0,0,-0.0249,-0.0259,-0.0229,-0.0238,-0.0179,-0.0132,-0.0184,-0.0078,-0.0066,-0.0026,-0.0006,-0.0003,0.0075,0.0075,0.0032,0.0049,0,0,0,-0.0263,-0.026,-0.0254,-0.0239,-0.0212,-0.0134,-0.0121,-0.0075,-0.0063,-0.0008,-0.0003,0.0075,0.0075,0.0034,0.005,0.0167,0,0,0,-0.0279,-0.0279,-0.0254,-0.0253,-0.0213,-0.018,-0.0122,-0.0089,-0.0048,-0.0005,0.0075,0.0075,0.0034,0.0051,0.0166,0.0407,0.0433,0,0,-0.0291,-0.0281,-0.0281,-0.0257,-0.0244,-0.0189,-0.0161,-0.0086,-0.0037,0.0045,0.0047,0.0032,0.005,0.0167,0.0393,0.042,0,0,0,-0.0292,-0.0295,-0.0286,-0.0271,-0.0236,-0.0186,-0.013,-0.0094,-0.0025,-0.0016,0.0039,0.0053,0.0129,0.0271,0.0291,0.0327,0.0074,0.0074,0.0074,-0.0324,-0.031,-0.0296,-0.027,-0.0245,-0.0186,-0.0142,-0.0077,-0.0045,-0.0028,0.0021,0.0087,0.0232,0.0252,0.0282,0.0007,0.0007,0.0007,0.0007,-0.0323,-0.0267,-0.0284,-0.0258,-0.0212,-0.017,-0.0108,-0.0087,0.0013,-0.0006,0.007,0.022,0.0273,0.0297,0.0004,0.0004,0.0005,0.0005,0.0005,-0.0315,-0.0253,-0.0276,-0.018,-0.012,-0.0069,0.0101,0.0076,0.0029,0.0058,0.0325,0.0329,0.0358,0.0134,0.0134,0.0135,0.0135,0.0136,0.0136,-0.0196,-0.0211,-0.0113,-0.0029,0.0062,0.0203,0.0286,0.0362,0.0397,0.0343,0.0347,0.0403,0.0128,0.0133,0.0145,0.0143,0.0142,0.0141,0.0141,0.0037,0.0016,0.013,0.0222,0.0421,0.0606,0.0683,0.0853,0.0886,0.0926,0.0745,0.0528,0.0599,0.0585,0.0603,0.0736,0.0736,0.0736,0.0736,0.0252,0.0239,0.036,0.0471,0.0671,0.0777,0.1094,0.1218,0.117,0.1103,0.1001,0.0982,0.0956,0.1044,0.1019,0.1043,0.1285,0.1285,0.1285,0.0537,0.0472,0.0573,0.0541,0.0731,0.0924,0.118,0.139,0.1359,0.1297,0.0996,0.0973,0.0921,0.0878,0.0991,0.0954,0.0985,0,0]}],[{"header":{"parameterUnit":"m.s-1","parameterCategory":2,"la1":30.2992,"la2":30.254,"lo1":-89.0895,"lo2":-89.0443,"dy":0.0025,"dx":0.0025,"nx":19,"ny":19,"refTime":"2026-04-24T09:00:00:Z","depth":"2","parameterNumber":2,"parameterNumberName":"U-component_of_CURRENTS"},"data":[0,0,0,-0.1347,-0.1347,-0.1352,-0.1352,-0.1334,-0.1334,0,0,0,0,0,0,0,0,0,0,0,-0.134,-0.134,-0.1348,-0.1347,-0.1352,-0.1352,-0.1334,-0.1334,0,0,0,0,0,0,0,0,0,0,0,-0.134,-0.134,-0.134,-0.1347,-0.1352,-0.1352,-0.1335,-0.1338,0,0,0,0,0,0,0,0,0,0,-0.1337,-0.1327,-0.134,-0.134,-0.1347,-0.1352,-0.1352,-0.1338,-0.1338,-0.1325,0,-0.1318,0,-0.1325,-0.1332,-0.1332,0,0,0,-0.1352,-0.1328,-0.1334,-0.134,-0.1347,-0.1352,-0.1351,-0.1338,-0.1337,-0.1324,-0.1318,-0.1318,-0.1325,-0.1332,-0.1332,-0.1268,-0.1267,0,0,-0.1351,-0.1338,-0.1334,-0.1333,-0.1338,-0.1351,-0.1351,-0.1338,-0.1329,-0.1318,-0.1317,-0.1325,-0.1332,-0.1331,-0.1268,-0.1267,0,0,0,-0.1348,-0.1338,-0.1344,-0.1333,-0.1336,-0.1351,-0.1351,-0.133,-0.1333,-0.1317,-0.1324,-0.1331,-0.1331,-0.1269,-0.1268,-0.1275,0,0,0,-0.1348,-0.1336,-0.1344,-0.1336,-0.1336,-0.1335,-0.1343,-0.1334,-0.1333,-0.1325,-0.1331,-0.1331,-0.1269,-0.1268,-0.1276,-0.1269,0,0,0,-0.1342,-0.1335,-0.1334,-0.1335,-0.1337,-0.1335,-0.1338,-0.1334,-0.1337,-0.1332,-0.1331,-0.1269,-0.1268,-0.1276,-0.127,-0.1227,0,0,0,-0.1332,-0.1311,-0.1333,-0.1314,-0.1337,-0.1325,-0.1338,-0.1327,-0.1319,-0.1331,-0.1269,-0.1268,-0.1277,-0.1271,-0.1229,-0.1146,-0.1133,0,0,-0.1301,-0.1307,-0.1298,-0.1318,-0.1308,-0.1325,-0.1308,-0.1305,-0.1297,-0.1274,-0.1272,-0.1275,-0.127,-0.1227,-0.1082,-0.1071,0,0,0,-0.1285,-0.128,-0.1279,-0.1282,-0.1284,-0.1289,-0.129,-0.1285,-0.1268,-0.1287,-0.125,-0.1246,-0.1219,-0.1172,-0.1163,-0.1263,-0.1263,-0.1263,-0.1263,-0.1225,-0.1246,-0.1239,-0.1261,-0.1256,-0.1258,-0.1249,-0.1239,-0.1245,-0.1232,-0.1234,-0.118,-0.113,-0.1122,-0.1218,-0.1218,-0.1218,-0.1218,-0.1218,-0.1195,-0.1194,-0.1226,-0.1232,-0.1245,-0.1238,-0.1224,-0.1223,-0.1187,-0.121,-0.1184,-0.1159,-0.1112,-0.1218,-0.1218,-0.1218,-0.1218,-0.1218,-0.1218,-0.1171,-0.1171,-0.1196,-0.1216,-0.1236,-0.1245,-0.1213,-0.1219,-0.1181,-0.1157,-0.1083,-0.1082,-0.1182,-0.1144,-0.1143,-0.1143,-0.1143,-0.1143,-0.1143,-0.1126,-0.1151,-0.1144,-0.1195,-0.1224,-0.1245,-0.1221,-0.117,-0.1098,-0.1063,-0.1062,-0.1154,-0.1157,-0.1176,-0.1139,-0.114,-0.114,-0.1141,-0.1141,-0.1077,-0.1067,-0.1066,-0.109,-0.1151,-0.1154,-0.1196,-0.1074,-0.0996,-0.0937,-0.0993,-0.0998,-0.0979,-0.0985,-0.0998,-0.0918,-0.0918,-0.0918,-0.0918,-0.101,-0.1012,-0.0941,-0.0951,-0.1011,-0.1078,-0.0963,-0.0909,-0.0876,-0.0855,-0.0858,-0.0873,-0.0882,-0.086,-0.087,-0.0881,-0.0771,-0.0771,-0.0771,-0.0952,-0.0931,-0.0841,-0.0831,-0.0925,-0.0949,-0.0838,-0.0672,-0.0616,-0.0771,-0.0893,-0.0897,-0.0928,-0.0939,-0.0914,-0.0926,-0.0948,0,0]},{"header":{"parameterUnit":"m.s-1","parameterCategory":2,"la1":30.2992,"la2":30.254,"lo1":-89.0895,"lo2":-89.0443,"dy":0.0025,"dx":0.0025,"nx":19,"ny":19,"refTime":"2026-04-24T09:00:00:Z","depth":"2","parameterNumber":3,"parameterNumberName":"V-component_of_CURRENTS"},"data":[0,0,0,-0.031,-0.0309,-0.0241,-0.0241,-0.0116,-0.0115,0,0,0,0,0,0,0,0,0,0,0,-0.0331,-0.0331,-0.031,-0.0309,-0.0241,-0.0241,-0.0116,-0.0115,0,0,0,0,0,0,0,0,0,0,0,-0.0331,-0.0331,-0.0331,-0.0309,-0.0241,-0.024,-0.0116,-0.0174,0,0,0,0,0,0,0,0,0,0,-0.0243,-0.0277,-0.0331,-0.0331,-0.0309,-0.0241,-0.024,-0.0177,-0.017,-0.014,0,-0.0137,0,-0.0129,-0.0107,-0.0106,0,0,0,-0.0296,-0.0282,-0.0263,-0.0331,-0.0308,-0.0241,-0.0268,-0.0173,-0.0166,-0.0131,-0.0135,-0.0131,-0.0126,-0.0106,-0.0105,-0.0021,-0.0021,0,0,-0.0299,-0.0315,-0.0269,-0.0259,-0.0299,-0.027,-0.0266,-0.0169,-0.0164,-0.0135,-0.0128,-0.0124,-0.0105,-0.0104,-0.0021,-0.0021,0,0,0,-0.0319,-0.0318,-0.0302,-0.0264,-0.0257,-0.0269,-0.0264,-0.0168,-0.0163,-0.0126,-0.0123,-0.0104,-0.0103,-0.0021,-0.0021,-0.0069,0,0,0,-0.0321,-0.0331,-0.0304,-0.0312,-0.026,-0.0218,-0.0265,-0.0169,-0.0158,-0.0124,-0.0104,-0.0102,-0.0021,-0.0021,-0.0068,-0.0076,0,0,0,-0.0333,-0.0332,-0.0327,-0.0313,-0.029,-0.022,-0.0208,-0.0167,-0.0157,-0.0106,-0.0101,-0.0021,-0.0021,-0.0067,-0.0074,-0.0024,0,0,0,-0.0347,-0.0348,-0.0327,-0.0325,-0.0291,-0.0258,-0.0209,-0.0177,-0.014,-0.0104,-0.0021,-0.0021,-0.0066,-0.0073,-0.0024,-0.002,-0.002,0,0,-0.0358,-0.035,-0.0348,-0.0328,-0.0314,-0.0265,-0.0236,-0.0171,-0.0125,-0.0048,-0.0046,-0.0068,-0.0074,-0.0024,-0.0016,-0.0015,0,0,0,-0.0358,-0.036,-0.0351,-0.0337,-0.0304,-0.0266,-0.0208,-0.0175,-0.0112,-0.0105,-0.0053,-0.0054,-0.0021,-0.0019,-0.0019,-0.0021,-0.0021,-0.0021,-0.0021,-0.0388,-0.0373,-0.0376,-0.0352,-0.0323,-0.0262,-0.0225,-0.0165,-0.0126,-0.011,-0.0083,-0.0063,-0.0064,-0.0063,-0.0077,-0.0077,-0.0078,-0.0078,-0.0078,-0.0424,-0.0452,-0.0403,-0.0404,-0.0353,-0.0319,-0.0229,-0.0197,-0.0114,-0.0107,-0.0072,-0.0058,-0.0065,-0.0081,-0.0081,-0.008,-0.008,-0.0079,-0.0079,-0.0467,-0.0494,-0.047,-0.0493,-0.0446,-0.0377,-0.031,-0.0233,-0.0144,-0.0119,-0.0055,-0.0054,-0.007,-0.0083,-0.0083,-0.0083,-0.0082,-0.0082,-0.0082,-0.0569,-0.0549,-0.0615,-0.0612,-0.0603,-0.0551,-0.0369,-0.0268,-0.0131,-0.0086,-0.0085,-0.0063,-0.0063,-0.0067,-0.008,-0.008,-0.008,-0.0081,-0.0081,-0.0717,-0.0729,-0.0793,-0.0815,-0.0805,-0.0763,-0.0575,-0.0323,-0.0174,-0.0108,-0.0048,-0.005,-0.0017,-0.0017,-0.0019,-0.0017,-0.0017,-0.0017,-0.0017,-0.0852,-0.0865,-0.0925,-0.095,-0.0969,-0.0849,-0.072,-0.0501,-0.0258,-0.0165,-0.016,-0.0198,-0.0196,-0.0175,-0.0171,-0.0176,-0.0216,-0.0217,-0.0218,-0.0998,-0.0964,-0.1006,-0.1,-0.1005,-0.0935,-0.0809,-0.0545,-0.0243,-0.0233,-0.0268,-0.0016,-0.0056,-0.0059,-0.0013,-0.0013,-0.0015,0,0]}],[{"header":{"parameterUnit":"m.s-1","parameterCategory":2,"la1":30.2992,"la2":30.254,"lo1":-89.0895,"lo2":-89.0443,"dy":0.0025,"dx":0.0025,"nx":19,"ny":19,"refTime":"2026-04-24T09:00:00:Z","depth":"4","parameterNumber":2,"parameterNumberName":"U-component_of_CURRENTS"},"data":[0,0,0,-0.1022,-0.1022,-0.1074,-0.1074,-0.1064,-0.1064,0,0,0,0,0,0,0,0,0,0,0,-0.1005,-0.1006,-0.1021,-0.1023,-0.1074,-0.1074,-0.1064,-0.1064,0,0,0,0,0,0,0,0,0,0,0,-0.1005,-0.1006,-0.1006,-0.1023,-0.1074,-0.1074,-0.1064,-0.1045,0,0,0,0,0,0,0,0,0,0,-0.1005,-0.1002,-0.1006,-0.1006,-0.1023,-0.1074,-0.1074,-0.1045,-0.1046,-0.1018,0,-0.1028,0,-0.1041,-0.1061,-0.1061,0,0,0,-0.1027,-0.1002,-0.1011,-0.1006,-0.1023,-0.1074,-0.1052,-0.1046,-0.1048,-0.1019,-0.1028,-0.1028,-0.1041,-0.1061,-0.106,-0.1013,-0.1013,0,0,-0.1024,-0.1017,-0.1011,-0.1012,-0.1037,-0.105,-0.1053,-0.1048,-0.105,-0.1028,-0.1028,-0.104,-0.106,-0.106,-0.1014,-0.1013,0,0,0,-0.1013,-0.1015,-0.1026,-0.1012,-0.1025,-0.1052,-0.1055,-0.105,-0.1053,-0.1028,-0.104,-0.106,-0.106,-0.1014,-0.1014,-0.1033,0,0,0,-0.1011,-0.1008,-0.1025,-0.1022,-0.1026,-0.1049,-0.1057,-0.1054,-0.1054,-0.104,-0.106,-0.1059,-0.1014,-0.1014,-0.1033,-0.1028,0,0,0,-0.1003,-0.1007,-0.1013,-0.1021,-0.1041,-0.105,-0.1054,-0.1055,-0.106,-0.1061,-0.1059,-0.1014,-0.1014,-0.1033,-0.1028,-0.0995,0,0,0,-0.0994,-0.0989,-0.1013,-0.1012,-0.1041,-0.1046,-0.1054,-0.1061,-0.1061,-0.106,-0.1014,-0.1014,-0.1033,-0.1028,-0.0995,-0.09,0,0,0,-0.0977,-0.0987,-0.0985,-0.1007,-0.1016,-0.104,-0.1043,-0.1051,-0.1042,-0.1011,-0.1011,-0.1033,-0.1028,-0.0995,-0.0873,0,0,0,0,-0.0973,-0.0977,-0.098,-0.0998,-0.1008,-0.1031,-0.1042,-0.104,-0.1036,-0.104,-0.1017,-0.1013,-0.0992,-0.0938,-0.1011,-0.1011,-0.1011,-0.1011,-0.1011,-0.0939,-0.0958,-0.0962,-0.0988,-0.0998,-0.1021,-0.1026,-0.1023,-0.1022,-0.1022,-0.1019,-0.099,-0.0934,-0.1013,-0.1013,-0.1013,-0.1013,-0.1013,-0.1013,-0.0914,-0.0901,-0.0955,-0.0966,-0.0996,-0.1007,-0.1017,-0.1024,-0.1001,-0.1015,-0.0993,-0.0949,-0.1014,-0.1014,-0.1014,-0.1014,-0.1014,-0.1013,-0.1013,-0.088,-0.0867,-0.0909,-0.0923,-0.0961,-0.0992,-0.0989,-0.1011,-0.1004,-0.0992,-0.0908,-0.0983,-0.0992,-0.098,-0.098,-0.0979,-0.0979,-0.0979,-0.0979,-0.0792,-0.0833,-0.0823,-0.086,-0.0879,-0.091,-0.0964,-0.096,-0.0975,-0.0899,-0.0988,-0.0978,-0.0979,-0.0988,-0.0977,-0.0977,-0.0977,-0.0978,-0.0978,-0.0683,-0.0707,-0.0696,-0.0708,-0.0741,-0.077,-0.0858,-0.0863,-0.0826,-0.0783,-0.0835,-0.0843,-0.0817,-0.0821,-0.0824,-0.0763,-0.0762,-0.0761,0,-0.0589,-0.06,-0.0583,-0.0586,-0.058,-0.068,-0.0645,-0.0687,-0.071,-0.0675,-0.0798,-0.0855,-0.086,-0.0832,-0.0834,-0.0836,0,0,0,-0.0498,-0.0522,-0.0486,-0.0514,-0.0516,-0.0562,-0.0637,-0.0616,-0.0712,-0.0696,-0.0728,-0.0736,-0.092,-0.0969,-0.0947,-0.0948,-0.096,0,0]},{"header":{"parameterUnit":"m.s-1","parameterCategory":2,"la1":30.2992,"la2":30.254,"lo1":-89.0895,"lo2":-89.0443,"dy":0.0025,"dx":0.0025,"nx":19,"ny":19,"refTime":"2026-04-24T09:00:00:Z","depth":"4","parameterNumber":3,"parameterNumberName":"V-component_of_CURRENTS"},"data":[0,0,0,-0.0227,-0.0227,-0.0187,-0.0186,-0.0084,-0.0083,0,0,0,0,0,0,0,0,0,0,0,-0.0239,-0.0239,-0.0227,-0.0227,-0.0187,-0.0186,-0.0084,-0.0083,0,0,0,0,0,0,0,0,0,0,0,-0.0239,-0.0239,-0.0239,-0.0227,-0.0187,-0.0186,-0.0085,-0.0124,0,0,0,0,0,0,0,0,0,0,-0.0168,-0.0196,-0.0239,-0.0239,-0.0226,-0.0187,-0.0186,-0.0126,-0.0122,-0.0092,0,-0.0095,0,-0.0093,-0.0077,-0.0076,0,0,0,-0.0213,-0.02,-0.0187,-0.0239,-0.0226,-0.0187,-0.0201,-0.0124,-0.0119,-0.0086,-0.0094,-0.009,-0.0091,-0.0076,-0.0076,0.0011,0.0011,0,0,-0.0215,-0.0228,-0.0191,-0.0184,-0.0226,-0.0202,-0.02,-0.0121,-0.012,-0.0093,-0.0088,-0.0089,-0.0075,-0.0075,0.001,0.0011,0,0,0,-0.0231,-0.023,-0.022,-0.0188,-0.0188,-0.0201,-0.0198,-0.0123,-0.012,-0.0087,-0.0088,-0.0075,-0.0074,0.001,0.0011,-0.0046,0,0,0,-0.0231,-0.024,-0.0221,-0.0228,-0.019,-0.0164,-0.0202,-0.0125,-0.0116,-0.0088,-0.0075,-0.0073,0.001,0.001,-0.0045,-0.0065,0,0,0,-0.0239,-0.0241,-0.0239,-0.0229,-0.0218,-0.0165,-0.0157,-0.0123,-0.0117,-0.0076,-0.0072,0.001,0.001,-0.0044,-0.0063,-0.0067,0,0,0,-0.0248,-0.0251,-0.024,-0.0239,-0.0219,-0.019,-0.0157,-0.0131,-0.0101,-0.0074,0.001,0.0011,-0.0043,-0.0062,-0.0066,-0.0146,0,0,0,-0.0255,-0.0252,-0.025,-0.0239,-0.0226,-0.0194,-0.017,-0.012,-0.008,-0.001,-0.0008,-0.0045,-0.0063,-0.0067,-0.0117,0,0,0,0,-0.0254,-0.0257,-0.0249,-0.0241,-0.0215,-0.0194,-0.0146,-0.012,-0.0068,-0.0062,-0.002,-0.0028,-0.003,-0.0072,0.0013,0.0013,0.0013,0.0013,0.0013,-0.0279,-0.0266,-0.0276,-0.0258,-0.0234,-0.0186,-0.0161,-0.0112,-0.0075,-0.0061,-0.0056,-0.0071,-0.0117,-0.0036,-0.0036,-0.0036,-0.0036,-0.0036,-0.0037,-0.0322,-0.0356,-0.0318,-0.033,-0.0292,-0.0268,-0.0183,-0.0153,-0.01,-0.0074,-0.0072,-0.0105,-0.0041,-0.0041,-0.004,-0.0039,-0.0039,-0.0038,-0.0038,-0.0374,-0.0402,-0.0398,-0.0437,-0.0424,-0.0362,-0.036,-0.0265,-0.0154,-0.0144,-0.0171,-0.0097,-0.0113,-0.0144,-0.0144,-0.0144,-0.0144,-0.0145,-0.0145,-0.0473,-0.0469,-0.0523,-0.057,-0.0579,-0.0584,-0.0483,-0.0427,-0.0285,-0.0231,-0.0158,-0.0107,-0.0103,-0.0117,-0.0146,-0.0146,-0.0146,-0.0146,-0.0146,-0.059,-0.0592,-0.0657,-0.0689,-0.073,-0.073,-0.0676,-0.0536,-0.0475,-0.0384,-0.0267,-0.0261,-0.0243,-0.0236,-0.0253,-0.0325,-0.0326,-0.0327,0,-0.0668,-0.0685,-0.072,-0.0746,-0.0784,-0.0765,-0.0731,-0.0652,-0.0453,-0.0426,-0.0405,-0.0273,-0.0268,-0.0249,-0.0244,-0.0266,0,0,0,-0.0748,-0.0732,-0.075,-0.0753,-0.0754,-0.0701,-0.07,-0.0647,-0.0516,-0.0489,-0.0356,-0.0348,-0.0328,-0.0152,-0.0108,-0.0104,-0.0123,0,0]}]]